Вернуться в каталог

STARLINK-33624

АктивенСвязьVLEO
NORAD 63071·PAYLOAD·🇺🇸 United States

Запущен Feb 21, 2025 с Cape Canaveral Space Force Station

Loading…

Ближайшие Пролёты (ближайшие 24 часа)

TLE

СвежийSource: CelesTrak SupGP

Эпоха: Sep 15, 2026, 03:23 UTC

1 63071C 25035V   26258.14145833  .00117960  00000+0  33407-2 0  2584
2 63071  42.9974 150.7985 0008636 214.0089 278.8452 15.35349348    18

Отслеживайте STARLINK-33624 в реальном времени с AllMySat

Download on the App Store